DELTA 1 DEB

Satellite information

Favourite Embed

Satellite Type and Status

DEBRISIN ORBIT

Key statistics

Satellite DELTA 1 DEB at a glance.

Uptime

18980

Days in orbit

Revolutions

≈ 14.1

Per day

Orbit

SSO

Sun Synchronous Orbit

Inclination

102.7

Latest

Satellite identification and parameters

Extended collection of information and parameters for DELTA 1 DEB.

Object identification

Identified? True

Debris? True

Object name: DELTA 1 DEB

International designator: 1973-086GR

Object number (NORAD): 14480

Object ID (CCSDS): 14480

Country: UNITED STATES OF AMERICA (US)

Current information (Y/N): Y

RCS size: SMALL

Orbital parameters

Period: 102.422 minutes

Inclination: 102.6883 deg

SMA: 7251.393 km

Apoapsis: 933.453 km

Periapsis: 813.064 km

RAAN: 40.4499 deg

Eccentricy: 0.0083011

Argument of periapsis: 248.1935 deg

Mean anomaly: 128.9435 deg

Mean motion: 14.05952215 rev/day

Mean motion (dot): 0.00047636 rev/day2

B* drag term: 0.02804 1/REarth

Two-line elements (TLE)

Creation date: Oct. 23, 2025, 10:16 p.m.

Reference frame: TEME

Reference center: EARTH

Epoch: Oct. 23, 2025, 1:21 p.m. UTC

TLE line 0: 0 DELTA 1 DEB

TLE line 1: 1 14480U 73086GR 25296.55678520 .00047636 00000-0 28040-1 0 9994

TLE line 2: 2 14480 102.6883 40.4499 0083011 248.1935 128.9435 14.05952215 25904

Live tracking on map

Real-time ground track for satellite DELTA 1 DEB.

In-orbit conjunctions

A list of the most updated potential collisions computed for object DELTA 1 DEB.

Target Orbit TCA Probability of collision Miss distance Type
SL-16 DEB LEO 2025-03-12 14:29:14 0.000280974 63.0 (m) DEBRIS
COSMOS 1275 DEB LEO 2024-11-12 17:43:05 0.0002373085 539.0 (m) DEBRIS

Associated space launch

Meteorological satellite using radiometric imaging

DELTA 1 DEB was lifted into orbit during the mission ‘Delta 0300 | NOAA 3’, on board a Delta 0300 space rocket.

The launch took place on Nov. 6, 1973, 5:02 p.m. from Space Launch Complex 2W.

For more information about the launch, click the button.

Launch to space Delta 0300 | NOAA 3
Delta 0300 | NOAA 3

Agency: N/A

Status: Launch Successful

Launch date: Nov. 6, 1973, 5:02 p.m. UTC

Rocket: Delta 0300

Launch pad: Space Launch Complex 2W

Location: Vandenberg SFB, CA, USA

...

Latest news about this satellite

There are no fresh news available about this satellite. Check back as we update our databases every day.


Newsletter sign-up

Weekly statistics, charts and insights to help you stay on top of the space industry.